FW9853 Weather Reports


time (UTC)temp
C
wind
direction
speed
KPH
gust
KPH
rain 1hr
cm
rain 24hr
cm
rain mn
cm
humidity
%
barometer
mb
20260504213023 16 0.0 0.0 0.00 0.00 0.00 63 1007.8
20260504212102 16 0.0 0.0 0.00 0.00 0.00 61 1007.8
20260504211017 16 0.0 0.0 0.00 0.00 0.00 60 1007.8
20260504210031 17 0.0 0.0 0.00 0.00 0.00 59 1007.6
20260504205028 17 0.0 0.0 0.00 0.00 0.00 59 1007.7
20260504204025 17 0.0 0.0 0.00 0.00 0.00 58 1007.7
20260504203022 17 0.0 0.0 0.00 0.00 0.00 55 1007.6
20260504202019 18 0.0 0.0 0.00 0.00 0.00 53 1007.7
20260504201016 18 0.0 0.0 0.00 0.00 0.00 50 1007.7
20260504200031 19 0.0 0.0 0.00 0.00 0.00 50 1008.0
20260504195027 20 0.0 0.0 0.00 0.00 0.00 46 1007.8
20260504194024 20 0.0 0.0 0.00 0.00 0.00 44 1008.1
20260504193021 21 0.0 0.0 0.00 0.00 0.00 41 1008.1
20260504192041 22 0.0 0.0 0.00 0.00 0.00 41 1007.8
20260504191015 22 0.0 0.0 0.00 0.00 0.00 41 1008.1
20260504190029 22 0.0 0.0 0.00 0.00 0.00 40 1008.2
20260504185026 22 0.0 0.0 0.00 0.00 0.00 41 1008.3
20260504184023 22 0.0 0.0 0.00 0.00 0.00 40 1008.5
20260504183021 23 0.0 0.0 0.00 0.00 0.00 40 1008.8
20260504182017 23 0.0 0.0 0.00 0.00 0.00 40 1008.9
20260504181051 23 0.0 0.0 0.00 0.00 0.00 40 1008.9
20260504180028 23 0.0 0.0 0.00 0.00 0.00 40 1009.1
20260504175025 23 0.0 0.0 0.00 0.00 0.00 40 1008.9
20260504174022 23 0.0 0.0 0.00 0.00 0.00 41 1009.0
20260504173019 22 0.0 0.0 0.00 0.00 0.00 41 1009.2
20260504172016 23 0.0 0.0 0.00 0.00 0.00 40 1009.4
20260504171029 23 0.0 0.0 0.00 0.00 0.00 41 1009.5
20260504151027 25 0.0 0.0 0.00 0.00 0.00 31 1010.6
20260504150105 26 0.0 0.0 0.00 0.00 0.00 31 1010.6
20260504141026 31 0.0 0.0 0.00 0.00 0.00 28 1010.8
20260504081019 7 0.0 0.0 0.00 0.00 0.00 71 1010.4
20260504045047 7 0.0 0.0 0.00 0.00 0.00 64 1009.6
20260504044024 7 0.0 0.0 0.00 0.00 0.00 63 1009.7
20260504043021 7 0.0 0.0 0.00 0.00 0.00 62 1009.9
20260504042018 7 0.0 0.0 0.00 0.00 0.00 60 1009.7
20260504041015 7 0.0 0.0 0.00 0.00 0.00 58 1009.5
20260504040029 7 0.0 0.0 0.00 0.00 0.00 55 1009.4
20260504035026 7 0.0 0.0 0.00 0.00 0.00 54 1009.2
20260504034023 7 0.0 0.0 0.00 0.00 0.00 53 1009.6
20260504033020 7 0.0 0.0 0.00 0.00 0.00 51 1009.6
20260504032016 7 0.0 0.0 0.00 0.00 0.00 50 1009.3
20260504031030 7 0.0 0.0 0.00 0.00 0.00 50 1009.4
20260504030027 7 0.0 0.0 0.00 0.00 0.00 48 1009.6
20260504025024 7 0.0 0.0 0.00 0.00 0.00 48 1009.5
20260504024021 7 0.0 0.0 0.00 0.00 0.00 46 1009.5
20260504023018 7 0.0 0.0 0.00 0.00 0.00 45 1009.5
20260504022016 7 0.0 0.0 0.00 0.00 0.00 45 1009.6
20260504021046 7 0.0 0.0 0.00 0.00 0.00 44 1009.6
20260504020026 8 0.0 0.0 0.00 0.00 0.00 44 1009.2
20260504015023 8 0.0 0.0 0.00 0.00 0.00 43 1009.5
20260504014022 8 0.0 0.0 0.00 0.00 0.00 41 1009.6
20260504013021 8 0.0 0.0 0.00 0.00 0.00 40 1009.2
20260504012031 9 0.0 0.0 0.00 0.00 0.00 40 1009.0
20260504011029 9 0.0 0.0 0.00 0.00 0.00 40 1009.1
20260504010025 10 0.0 0.0 0.00 0.00 0.00 40 1009.0
20260504005022 10 0.0 0.0 0.00 0.00 0.00 37 1008.8
20260504004019 10 0.0 0.0 0.00 0.00 0.00 37 1008.5
20260504003016 10 0.0 0.0 0.00 0.00 0.00 35 1008.4
20260504002030 11 0.0 0.0 0.00 0.00 0.00 34 1008.5
20260504001027 11 0.0 0.0 0.00 0.00 0.00 34 1008.3
20260504000027 11 0.0 0.0 0.00 0.00 0.00 32 1008.2
20260503235021 12 0.0 0.0 0.00 0.00 0.00 31 1007.9
20260503234018 12 0.0 0.0 0.00 0.00 0.00 31 1007.9
20260503233015 13 0.0 0.0 0.00 0.00 0.00 30 1007.8
20260503232050 13 0.0 0.0 0.00 0.00 0.00 30 1007.6
20260503231026 13 0.0 0.0 0.00 0.00 0.00 30 1007.5
20260503230023 13 0.0 0.0 0.00 0.00 0.00 30 1007.5
20260503225020 13 0.0 0.0 0.00 0.00 0.00 30 1007.3
20260503224019 14 0.0 0.0 0.00 0.00 0.00 30 1007.1
20260503223030 14 0.0 0.0 0.00 0.00 0.00 30 1007.4
20260503222028 14 0.0 0.0 0.00 0.00 0.00 30 1007.2
20260503221042 14 0.0 0.0 0.00 0.00 0.00 30 1007.3
20260503220022 15 0.0 0.0 0.00 0.00 0.00 29 1007.5
20260503215018 15 0.0 0.0 0.00 0.00 0.00 28 1007.2
20260503214036 15 0.0 0.0 0.00 0.00 0.00 27 1006.8
20260503213411 15 0.0 0.0 0.00 0.00 0.00 27 1006.6